Airfield :
LOGIN :

Register | Disclaimer

   EN    FR    IT 

 










Legend :    VFR   Marginal VFR   IFR   Intensive IFR   Very Intensive IFR
Visi :
Ceiling :
>= 8 km
>= 3000ft
5 to 8 km
1000 to 3000 ft
1500m to 5 km
500 to 1000 ft
800 to 1500m
200 to 500 ft
< 800m
< 200 ft
Symbols :   Thunderstorms  Fog  Heavy snow  Heavy precipitations  Wind > 20 kt
SIGMETs :     Misc.  Thunderstorms  Icing  Turbulence  Mountain Waves  Volcanic Ashes






- Airport Elevation : 388 ft
- IATA code : QYR


LFQB - Troyes Barberey

CURRENT METAR :
  • 160530Z AUTO 00000KT 2700 0400 BCFG NSC M06/M07 Q1029

EXPIRED METARs :
  • 160500Z AUTO 00000KT 1300 BR NSC M05/M06 Q1029
  • 160430Z AUTO 00000KT 1500 1100 BR NSC M05/M06 Q1029
  • 160400Z AUTO 00000KT 4300 BR NSC M05/M06 Q1029
  • 160330Z AUTO 33003KT 5000 BR SCT035 M03/M04 Q1029
  • 160300Z AUTO 32002KT 5000 BR BKN035 M03/M04 Q1029

TAF N/A



MET'MAP, your aeronautical weather chart ! - Copyright ORBIFLY December 2007 - Disclaimer

ORBIFLY MET'MAP TEAM :

Programming & Development : Alexandra Zaïnal
Concept & original design : Baudouin d'Aumeries
Assistance for programming : Marc-Olivier Méhu
Technical & hardware support : Manuel Goepfert

Contact : metmap@orbifly.com




SOURCES & CREDITS :

   NOAA